Tracking 29591 objects as of 19-Sep-2024
HD Live streaming from Space Station
objects crossing your sky now

STARLINK-32149

Track STARLINK-32149 now!
10-day predictions
STARLINK-32149 is classified as:


NORAD ID: 60292
Int'l Code: 2024-132Q
Perigee: 453.4 km
Apogee: 455.4 km
Inclination: 53.2 °
Period: 93.5 minutes
Semi major axis: 6825 km
RCS: Unknown
Launch date: July 28, 2024
Source: United States (US)
Launch site: AIR FORCE EASTERN TEST RANGE (AFETR)
Your satellite tracking list
Your tracking list is empty




NASA's NSSDC Master Catalog

Two Line Element Set (TLE):
1 60292U 24132Q   24262.61354713  .00001697  00000-0  52416-4 0  9992
2 60292  53.1609  27.6699 0001466  96.7991 263.3181 15.39604416  9329
Source of the keplerian elements: AFSPC